• In Hungary
  • List of Countries
  • For 7 days
  • Water Temperature
  • Satellite Maps
  • Weather Map
  • News
  • Weather Widgets
  • user-avatar
    Login

    Hourly Weather Kalyan

    Today, 18 November, Saturday

    Time Temperature Precipitation Wind Pressure Humidity
    00:00 +25°C° 0 mm 2 mps 756 mmHg 41%
    01:00 +25°C° 0 mm 2 mps 756 mmHg 41%
    02:00 +25°C° 0 mm 2 mps 756 mmHg 41%
    03:00 +25°C° 0 mm 2 mps 756 mmHg 42%
    04:00 +24°C° 0 mm 2 mps 756 mmHg 43%
    05:00 +24°C° 0 mm 1 mps 756 mmHg 48%
    06:00 +25°C° 0 mm 1 mps 756 mmHg 47%
    07:00 +26°C° 0 mm 2 mps 757 mmHg 47%
    08:00 +27°C° 0 mm 2 mps 757 mmHg 46%
    09:00 +30°C° 0 mm 2 mps 757 mmHg 41%
    10:00 +32°C° 0 mm 1 mps 757 mmHg 36%
    11:00 +35°C° 0 mm 1 mps 758 mmHg 32%
    12:00 +35°C° 0 mm 1 mps 757 mmHg 31%
    13:00 +36°C° 0 mm 1 mps 756 mmHg 30%
    14:00 +37°C° 0 mm 2 mps 756 mmHg 29%
    15:00 +35°C° 0 mm 2 mps 755 mmHg 34%
    16:00 +34°C° 0 mm 3 mps 755 mmHg 38%
    17:00 +31°C° 0 mm 3 mps 755 mmHg 43%
    18:00 +30°C° 0 mm 3 mps 756 mmHg 46%
    19:00 +28°C° 0 mm 3 mps 756 mmHg 48%
    20:00 +27°C° 0 mm 3 mps 757 mmHg 51%
    21:00 +27°C° 0 mm 2 mps 757 mmHg 51%
    22:00 +26°C° 0 mm 2 mps 757 mmHg 50%
    23:00 +26°C° 0 mm 2 mps 757 mmHg 50%

    Tomorrow, 19 November, Sunday

    Time Temperature Precipitation Wind Pressure Humidity
    00:00 +26°C° 0 mm 2 mps 757 mmHg 49%
    01:00 +25°C° 0 mm 2 mps 757 mmHg 48%
    02:00 +25°C° 0 mm 2 mps 757 mmHg 47%
    03:00 +25°C° 0 mm 2 mps 757 mmHg 47%
    04:00 +25°C° 0 mm 2 mps 757 mmHg 46%
    05:00 +25°C° 0 mm 2 mps 757 mmHg 45%
    06:00 +26°C° 0 mm 2 mps 757 mmHg 45%
    07:00 +27°C° 0 mm 2 mps 758 mmHg 45%
    08:00 +28°C° 0 mm 2 mps 758 mmHg 44%
    09:00 +30°C° 0 mm 2 mps 758 mmHg 41%
    10:00 +32°C° 0 mm 2 mps 758 mmHg 37%
    11:00 +35°C° 0 mm 2 mps 758 mmHg 34%
    12:00 +36°C° 0 mm 2 mps 758 mmHg 33%
    13:00 +37°C° 0 mm 2 mps 757 mmHg 32%
    14:00 +37°C° 0 mm 2 mps 756 mmHg 32%
    15:00 +36°C° 0 mm 2 mps 756 mmHg 36%
    16:00 +34°C° 0 mm 3 mps 756 mmHg 40%
    17:00 +33°C° 0 mm 3 mps 756 mmHg 44%
    18:00 +31°C° 0 mm 3 mps 756 mmHg 46%
    19:00 +29°C° 0 mm 2 mps 757 mmHg 49%
    20:00 +28°C° 0 mm 2 mps 757 mmHg 51%
    21:00 +28°C° 0 mm 2 mps 757 mmHg 51%
    22:00 +27°C° 0 mm 2 mps 757 mmHg 51%
    23:00 +27°C° 0 mm 2 mps 758 mmHg 51%

    Day after tomorrow, 20 November, Monday

    Time Temperature Precipitation Wind Pressure Humidity
    00:00 +27°C° 0 mm 2 mps 757 mmHg 51%
    01:00 +27°C° 0 mm 2 mps 757 mmHg 50%
    02:00 +27°C° 0 mm 2 mps 757 mmHg 50%
    03:00 +27°C° 0 mm 2 mps 757 mmHg 49%
    04:00 +27°C° 0 mm 2 mps 756 mmHg 49%
    05:00 +27°C° 0 mm 2 mps 756 mmHg 48%
    06:00 +27°C° 0 mm 2 mps 757 mmHg 47%
    07:00 +28°C° 0 mm 2 mps 758 mmHg 47%
    08:00 +29°C° 0 mm 2 mps 758 mmHg 46%
    09:00 +31°C° 0 mm 2 mps 758 mmHg 42%
    10:00 +34°C° 0 mm 3 mps 758 mmHg 37%
    11:00 +36°C° 0 mm 3 mps 758 mmHg 32%
    12:00 +37°C° 0 mm 2 mps 757 mmHg 32%
    13:00 +37°C° 0 mm 2 mps 756 mmHg 31%
    14:00 +38°C° 0 mm 2 mps 755 mmHg 31%
    15:00 +37°C° 0 mm 2 mps 755 mmHg 35%
    16:00 +35°C° 0 mm 2 mps 755 mmHg 39%
    17:00 +34°C° 0 mm 2 mps 755 mmHg 44%
    18:00 +32°C° 0 mm 2 mps 756 mmHg 45%
    19:00 +31°C° 0 mm 2 mps 757 mmHg 47%
    20:00 +30°C° 0 mm 2 mps 757 mmHg 49%
    21:00 +29°C° 0 mm 2 mps 757 mmHg 50%
    22:00 +29°C° 0 mm 2 mps 757 mmHg 50%
    23:00 +29°C° 0 mm 2 mps 757 mmHg 51%

    21 November, Tuesday

    Time Temperature Precipitation Wind Pressure Humidity
    00:00 +28°C° 0 mm 2 mps 757 mmHg 51%
    01:00 +28°C° 0 mm 2 mps 756 mmHg 51%
    02:00 +28°C° 0 mm 2 mps 756 mmHg 51%
    03:00 +28°C° 0 mm 2 mps 756 mmHg 51%
    04:00 +28°C° 0 mm 2 mps 756 mmHg 51%
    05:00 +28°C° 0 mm 2 mps 756 mmHg 51%
    06:00 +29°C° 0 mm 2 mps 757 mmHg 50%
    07:00 +29°C° 0 mm 2 mps 757 mmHg 49%
    08:00 +30°C° 0 mm 2 mps 758 mmHg 49%
    09:00 +33°C° 0 mm 3 mps 758 mmHg 44%
    10:00 +35°C° 0 mm 3 mps 758 mmHg 40%
    11:00 +37°C° 0 mm 4 mps 758 mmHg 35%
    12:00 +37°C° 0 mm 3 mps 757 mmHg 34%
    13:00 +38°C° 0 mm 2 mps 756 mmHg 33%
    14:00 +38°C° 0 mm 2 mps 755 mmHg 32%
    15:00 +37°C° 0 mm 2 mps 755 mmHg 36%
    16:00 +36°C° 0 mm 2 mps 755 mmHg 40%
    17:00 +34°C° 0 mm 2 mps 755 mmHg 44%
    18:00 +34°C° 0 mm 2 mps 755 mmHg 46%
    19:00 +32°C° 0 mm 2 mps 756 mmHg 48%
    20:00 +31°C° 0 mm 2 mps 757 mmHg 50%
    21:00 +30°C° 0 mm 2 mps 757 mmHg 49%
    22:00 +30°C° 0 mm 2 mps 757 mmHg 49%
    23:00 +30°C° 0 mm 2 mps 757 mmHg 49%

    22 November, Wednesday

    Time Temperature Precipitation Wind Pressure Humidity
    00:00 +30°C° 0 mm 2 mps 756 mmHg 49%
    01:00 +30°C° 0 mm 2 mps 756 mmHg 48%
    02:00 +30°C° 0 mm 2 mps 755 mmHg 48%
    03:00 +29°C° 0 mm 2 mps 755 mmHg 48%
    04:00 +29°C° 0 mm 2 mps 756 mmHg 49%
    05:00 +28°C° 0 mm 2 mps 756 mmHg 49%
    06:00 +29°C° 0 mm 2 mps 756 mmHg 49%
    07:00 +29°C° 0 mm 2 mps 757 mmHg 49%
    08:00 +30°C° 0 mm 2 mps 758 mmHg 49%
    09:00 +33°C° 0 mm 3 mps 757 mmHg 44%
    10:00 +35°C° 0 mm 3 mps 757 mmHg 39%
    11:00 +37°C° 0 mm 4 mps 757 mmHg 35%
    12:00 +38°C° 0 mm 3 mps 756 mmHg 33%
    13:00 +38°C° 0 mm 2 mps 755 mmHg 32%
    14:00 +39°C° 0 mm 1 mps 755 mmHg 31%
    15:00 +36°C° 0 mm 1 mps 755 mmHg 34%
    16:00 +36°C° 0 mm 2 mps 755 mmHg 38%
    17:00 +35°C° 0 mm 2 mps 755 mmHg 41%
    18:00 +34°C° 0 mm 2 mps 756 mmHg 43%
    19:00 +32°C° 0 mm 2 mps 756 mmHg 45%
    20:00 +31°C° 0 mm 2 mps 757 mmHg 47%
    21:00 +30°C° 0 mm 2 mps 757 mmHg 48%
    22:00 +29°C° 0 mm 1 mps 757 mmHg 49%
    23:00 +29°C° 0 mm 1 mps 757 mmHg 49%

    23 November, Thursday

    Time Temperature Precipitation Wind Pressure Humidity
    00:00 +29°C° 0 mm 1 mps 756 mmHg 50%
    01:00 +28°C° 0 mm 1 mps 756 mmHg 50%
    02:00 +28°C° 0 mm 1 mps 755 mmHg 51%
    03:00 +28°C° 0 mm 1 mps 756 mmHg 50%
    04:00 +27°C° 0 mm 1 mps 756 mmHg 50%
    05:00 +27°C° 0 mm 2 mps 756 mmHg 50%
    06:00 +28°C° 0 mm 2 mps 757 mmHg 49%
    07:00 +29°C° 0 mm 2 mps 757 mmHg 47%
    08:00 +30°C° 0 mm 2 mps 758 mmHg 46%
    09:00 +32°C° 0 mm 2 mps 758 mmHg 41%
    10:00 +35°C° 0 mm 2 mps 758 mmHg 36%
    11:00 +37°C° 0 mm 3 mps 758 mmHg 31%
    12:00 +38°C° 0 mm 2 mps 757 mmHg 30%
    13:00 +37°C° 0 mm 1 mps 756 mmHg 29%
    14:00 +39°C° 0 mm 1 mps 755 mmHg 28%
    15:00 +36°C° 0 mm 1 mps 755 mmHg 33%
    16:00 +36°C° 0 mm 2 mps 755 mmHg 37%
    17:00 +34°C° 0 mm 2 mps 755 mmHg 41%
    18:00 +32°C° 0 mm 2 mps 756 mmHg 44%
    19:00 +31°C° 0 mm 2 mps 757 mmHg 47%
    20:00 +29°C° 0 mm 1 mps 757 mmHg 50%
    21:00 +29°C° 0 mm 1 mps 757 mmHg 51%
    22:00 +28°C° 0 mm 1 mps 757 mmHg 52%
    23:00 +28°C° 0 mm 1 mps 757 mmHg 53%
    Show more